DAL209 KATL-KLAX

Flight info

Callsign DAL209
Flight time N/A
Altitude 40000
Route NASSA2 YAALL J14 PNH ACH ABQ J78 DRK GABBL HLYWD1
Aircraft A359/H-SDE2E3GHIJ3J4J5LM1ORWXY/LB1D1

Departure

Time 2026-05-06 17:50
Airport Hartsfield Jackson Atlanta International Airport (KATL)

Arrival

Time N/A
Airport Los Angeles International Airport (KLAX)
Time Latitude Longitude Altitude Speed Heading
2026-05-06 16:46 33.64187 -84.42644 1013 ft 0 kts 90°
2026-05-06 16:53 33.64187 -84.42628 1013 ft 0 kts 90°
2026-05-06 17:34 33.64187 -84.42625 1013 ft 0 kts 90°
2026-05-06 17:37 33.64187 -84.42638 1013 ft 4 kts 90°
2026-05-06 17:38 33.64187 -84.42670 1013 ft 4 kts 88°
2026-05-06 17:38 33.64184 -84.42701 1013 ft 4 kts 66°
2026-05-06 17:38 33.64169 -84.42726 1013 ft 4 kts 29°
2026-05-06 17:38 33.64151 -84.42733 1013 ft 0 kts
2026-05-06 17:42 33.64214 -84.42733 1013 ft 18 kts 360°
2026-05-06 17:43 33.64334 -84.42733 1012 ft 13 kts
2026-05-06 17:43 33.64341 -84.42732 1013 ft 0 kts
2026-05-06 17:43 33.64376 -84.42731 1013 ft 10 kts
2026-05-06 17:44 33.64451 -84.42696 1013 ft 12 kts 56°
2026-05-06 17:44 33.64468 -84.42586 1012 ft 15 kts 87°
2026-05-06 17:44 33.64468 -84.42453 1012 ft 17 kts 91°
2026-05-06 17:44 33.64467 -84.42306 1012 ft 18 kts 91°
2026-05-06 17:45 33.64483 -84.42219 1012 ft 10 kts 62°
2026-05-06 17:45 33.64523 -84.42141 1012 ft 12 kts 61°
2026-05-06 17:45 33.64541 -84.41988 1012 ft 23 kts 89°
2026-05-06 17:45 33.64542 -84.41789 1012 ft 24 kts 89°
2026-05-06 17:46 33.64545 -84.41586 1013 ft 25 kts 93°
2026-05-06 17:46 33.64540 -84.41376 1013 ft 26 kts 91°
2026-05-06 17:46 33.64542 -84.41159 1013 ft 26 kts 90°
2026-05-06 17:46 33.64542 -84.40952 1012 ft 23 kts 90°
2026-05-06 17:47 33.64559 -84.40776 1012 ft 21 kts 79°
2026-05-06 17:47 33.64570 -84.40637 1012 ft 12 kts 84°
2026-05-06 17:47 33.64584 -84.40600 1011 ft 0 kts 54°
2026-05-06 17:48 33.64584 -84.40599 1011 ft 2 kts 54°
2026-05-06 17:48 33.64643 -84.40577 1010 ft 11 kts 346°
2026-05-06 17:49 33.64676 -84.40655 1010 ft 11 kts 274°
2026-05-06 17:49 33.64677 -84.40667 1010 ft 9 kts 274°
2026-05-06 17:49 33.64679 -84.41042 1013 ft 79 kts 270°
2026-05-06 17:49 33.64674 -84.41950 1013 ft 137 kts 270°
2026-05-06 17:50 33.64698 -84.43235 1390 ft 150 kts 270°
2026-05-06 17:50 33.64839 -84.44485 2053 ft 151 kts 272°
2026-05-06 17:50 33.64955 -84.45816 2463 ft 173 kts 270°
2026-05-06 17:50 33.65115 -84.47367 2777 ft 201 kts 272°
2026-05-06 17:51 33.65360 -84.49069 3295 ft 218 kts 276°
2026-05-06 17:51 33.65671 -84.50965 3754 ft 241 kts 278°
2026-05-06 17:51 33.66026 -84.52962 4530 ft 247 kts 279°
2026-05-06 17:51 33.66393 -84.54985 5353 ft 249 kts 279°
2026-05-06 17:52 33.66763 -84.57020 6277 ft 248 kts 279°
2026-05-06 17:52 33.67128 -84.59031 7157 ft 246 kts 279°
2026-05-06 17:52 33.67475 -84.61051 7931 ft 246 kts 278°
2026-05-06 17:52 33.67816 -84.63084 8638 ft 251 kts 278°
2026-05-06 17:53 33.68165 -84.65160 9354 ft 254 kts 278°
2026-05-06 17:53 33.68516 -84.67238 10071 ft 254 kts 277°
2026-05-06 17:53 33.68868 -84.69339 10443 ft 267 kts 277°
2026-05-06 17:53 33.69246 -84.71599 10763 ft 284 kts 278°
2026-05-06 17:54 33.69650 -84.74003 11051 ft 300 kts 278°
2026-05-06 17:54 33.69953 -84.76533 11291 ft 313 kts 271°
2026-05-06 17:54 33.70000 -84.79201 11596 ft 324 kts 268°
2026-05-06 17:54 33.69991 -84.81932 12063 ft 329 kts 268°
2026-05-06 17:55 33.69980 -84.84702 12574 ft 333 kts 268°
2026-05-06 17:55 33.69971 -84.87464 13049 ft 336 kts 268°
2026-05-06 17:55 33.69963 -84.90295 13615 ft 340 kts 268°
2026-05-06 17:55 33.69956 -84.93148 14239 ft 342 kts 269°
2026-05-06 17:56 33.69949 -84.96010 14857 ft 343 kts 269°
2026-05-06 17:56 33.69941 -84.98885 15464 ft 345 kts 269°
2026-05-06 17:56 33.69933 -85.01770 16100 ft 346 kts 269°
2026-05-06 17:56 33.69924 -85.04633 16723 ft 347 kts 269°
2026-05-06 17:57 33.69914 -85.07555 17305 ft 351 kts 269°
2026-05-06 17:57 33.69904 -85.10496 17892 ft 353 kts 269°
2026-05-06 17:57 33.69892 -85.13459 18504 ft 355 kts 269°
2026-05-06 17:57 33.69881 -85.16429 19087 ft 356 kts 269°
2026-05-06 17:58 33.69869 -85.19416 19654 ft 358 kts 269°
2026-05-06 17:58 33.69855 -85.22411 20249 ft 360 kts 269°
2026-05-06 17:58 33.69838 -85.25382 20856 ft 361 kts 269°
2026-05-06 17:58 33.69804 -85.28402 21438 ft 363 kts 269°
2026-05-06 17:59 33.69766 -85.31443 21958 ft 365 kts 269°
2026-05-06 17:59 33.69729 -85.34502 22552 ft 367 kts 269°
2026-05-06 17:59 33.69693 -85.37575 23163 ft 368 kts 269°
2026-05-06 17:59 33.69656 -85.40669 23716 ft 370 kts 269°
2026-05-06 18:00 33.69619 -85.43773 24189 ft 373 kts 269°
2026-05-06 18:00 33.69581 -85.46870 24585 ft 377 kts 269°
2026-05-06 18:00 33.69542 -85.50040 25026 ft 381 kts 269°
2026-05-06 18:00 33.69502 -85.53240 25491 ft 384 kts 269°
2026-05-06 18:01 33.69460 -85.56461 25959 ft 387 kts 269°
2026-05-06 18:01 33.69418 -85.59706 26402 ft 390 kts 269°
2026-05-06 18:01 33.69374 -85.62983 26867 ft 393 kts 269°
2026-05-06 18:01 33.69329 -85.66281 27330 ft 396 kts 269°
2026-05-06 18:02 33.69283 -85.69607 27785 ft 399 kts 269°
2026-05-06 18:02 33.69235 -85.72962 28222 ft 402 kts 269°
2026-05-06 18:02 33.69187 -85.76292 28641 ft 405 kts 269°
2026-05-06 18:02 33.69137 -85.79689 29065 ft 408 kts 269°
2026-05-06 18:03 33.69086 -85.83120 29495 ft 411 kts 269°
2026-05-06 18:03 33.69033 -85.86562 29891 ft 414 kts 269°
2026-05-06 18:03 33.68979 -85.90038 30254 ft 417 kts 269°
2026-05-06 18:03 33.68925 -85.93484 30592 ft 418 kts 269°
2026-05-06 18:04 33.68868 -85.96983 30955 ft 419 kts 269°
2026-05-06 18:04 33.68811 -86.00491 31317 ft 420 kts 269°
2026-05-06 18:04 33.68796 -86.04005 31662 ft 421 kts 271°
2026-05-06 18:04 33.68999 -86.07526 31986 ft 422 kts 274°
2026-05-06 18:05 33.69274 -86.11041 32316 ft 423 kts 275°
2026-05-06 18:05 33.69555 -86.14554 32812 ft 420 kts 275°
2026-05-06 18:05 33.69831 -86.18031 33363 ft 416 kts 274°
2026-05-06 18:05 33.70104 -86.21490 33755 ft 415 kts 274°
2026-05-06 18:06 33.70371 -86.24905 34092 ft 415 kts 274°
2026-05-06 18:06 33.70639 -86.28354 34467 ft 413 kts 274°
2026-05-06 18:06 33.70903 -86.31769 34918 ft 409 kts 274°
2026-05-06 18:06 33.71164 -86.35152 35449 ft 404 kts 274°
2026-05-06 18:07 33.71422 -86.38497 35912 ft 399 kts 274°
2026-05-06 18:07 33.71675 -86.41805 36332 ft 395 kts 274°
2026-05-06 18:07 33.71925 -86.45084 36696 ft 393 kts 274°
2026-05-06 18:07 33.72173 -86.48347 37070 ft 390 kts 274°
2026-05-06 18:08 33.72416 -86.51542 37467 ft 387 kts 274°
2026-05-06 18:08 33.72659 -86.54765 37818 ft 385 kts 274°
2026-05-06 18:08 33.72900 -86.57963 38216 ft 382 kts 274°
2026-05-06 18:08 33.73138 -86.61134 38613 ft 379 kts 273°
2026-05-06 18:09 33.73372 -86.64273 38875 ft 377 kts 273°
2026-05-06 18:09 33.73606 -86.67410 39035 ft 377 kts 273°
2026-05-06 18:09 33.73838 -86.70549 39165 ft 377 kts 273°
2026-05-06 18:09 33.74071 -86.73691 39320 ft 377 kts 273°
2026-05-06 18:10 33.74302 -86.76828 39514 ft 377 kts 273°
2026-05-06 18:10 33.74529 -86.79925 39680 ft 376 kts 274°
2026-05-06 18:10 33.74758 -86.83057 39823 ft 376 kts 274°
2026-05-06 18:10 33.74987 -86.86188 39962 ft 376 kts 274°
2026-05-06 18:11 33.75365 -86.91399 40004 ft 376 kts 273°
2026-05-06 18:11 33.75893 -86.98721 39998 ft 376 kts 273°
2026-05-06 18:12 33.76338 -87.04941 39990 ft 375 kts 273°
2026-05-06 18:12 33.76781 -87.11188 39987 ft 375 kts 273°
2026-05-06 18:13 33.77222 -87.17442 39979 ft 375 kts 273°
2026-05-06 18:13 33.77660 -87.23700 39995 ft 375 kts 273°
2026-05-06 18:14 33.78095 -87.29961 39994 ft 375 kts 273°
2026-05-06 18:14 33.78525 -87.36189 39996 ft 375 kts 272°
2026-05-06 18:15 33.78881 -87.41391 39994 ft 376 kts 272°
2026-05-06 18:15 33.79373 -87.47659 39990 ft 377 kts 276°
2026-05-06 18:16 33.80485 -87.53844 39986 ft 379 kts 279°
2026-05-06 18:16 33.81780 -87.60000 39979 ft 379 kts 280°
2026-05-06 18:17 33.83080 -87.66112 39970 ft 379 kts 280°
2026-05-06 18:17 33.84369 -87.72271 39961 ft 379 kts 279°
2026-05-06 18:18 33.85647 -87.78440 39955 ft 380 kts 279°
2026-05-06 18:18 33.86918 -87.84608 39956 ft 380 kts 279°
2026-05-06 18:19 33.88180 -87.90742 39944 ft 380 kts 279°
2026-05-06 18:19 33.89448 -87.96925 39943 ft 380 kts 279°
2026-05-06 18:20 33.90713 -88.03104 39936 ft 380 kts 279°
2026-05-06 18:20 33.91967 -88.09251 39927 ft 380 kts 279°
2026-05-06 18:21 33.93228 -88.15446 39936 ft 381 kts 279°
2026-05-06 18:21 33.94486 -88.21647 39955 ft 381 kts 279°
2026-05-06 18:22 33.95732 -88.27798 39923 ft 378 kts 279°
2026-05-06 18:22 33.96975 -88.33959 39930 ft 378 kts 279°
2026-05-06 18:23 33.98213 -88.40108 39920 ft 378 kts 278°
2026-05-06 18:23 33.99452 -88.46284 39924 ft 378 kts 278°
2026-05-06 18:24 34.00680 -88.52417 39925 ft 379 kts 278°
2026-05-06 18:24 34.01915 -88.58602 39939 ft 379 kts 278°
2026-05-06 18:25 34.03138 -88.64746 39947 ft 379 kts 278°
2026-05-06 18:25 34.04367 -88.70931 39960 ft 379 kts 278°
2026-05-06 18:26 34.05591 -88.77120 39962 ft 379 kts 278°
2026-05-06 18:26 34.06812 -88.83304 39957 ft 379 kts 278°
2026-05-06 18:27 34.08019 -88.89442 39964 ft 378 kts 278°
2026-05-06 18:27 34.09233 -88.95624 39976 ft 378 kts 278°
2026-05-06 18:28 34.10443 -89.01807 39962 ft 378 kts 278°
2026-05-06 18:28 34.11650 -89.07991 39970 ft 378 kts 278°
2026-05-06 18:29 34.12848 -89.14146 39986 ft 378 kts 278°
2026-05-06 18:29 34.14049 -89.20338 39982 ft 378 kts 278°
2026-05-06 18:30 34.15247 -89.26526 39993 ft 378 kts 277°
2026-05-06 18:30 34.16439 -89.32705 39997 ft 377 kts 277°
2026-05-06 18:31 34.17618 -89.38834 40002 ft 377 kts 277°
2026-05-06 18:31 34.18803 -89.45012 40010 ft 377 kts 277°
2026-05-06 18:32 34.19985 -89.51189 40014 ft 377 kts 277°
2026-05-06 18:32 34.21277 -89.57337 40018 ft 379 kts 280°
2026-05-06 18:33 34.22804 -89.63390 40019 ft 378 kts 280°
2026-05-06 18:33 34.24344 -89.69470 40020 ft 377 kts 280°
2026-05-06 18:34 34.25838 -89.75557 40015 ft 377 kts 279°
2026-05-06 18:34 34.27307 -89.81645 40017 ft 377 kts 279°
2026-05-06 18:35 34.28762 -89.87702 40018 ft 377 kts 279°
2026-05-06 18:35 34.30221 -89.93787 40017 ft 377 kts 279°
2026-05-06 18:36 34.31681 -89.99881 40029 ft 377 kts 279°
2026-05-06 18:36 34.33132 -90.05951 40018 ft 376 kts 279°
2026-05-06 18:37 34.34583 -90.12039 40020 ft 376 kts 279°
2026-05-06 18:37 34.36033 -90.18134 40029 ft 376 kts 279°
2026-05-06 18:38 34.37469 -90.24189 40032 ft 376 kts 279°
2026-05-06 18:38 34.38911 -90.30284 40036 ft 376 kts 279°
2026-05-06 18:39 34.40351 -90.36385 40041 ft 376 kts 279°
2026-05-06 18:40 34.42495 -90.45497 40043 ft 377 kts 279°
2026-05-06 18:40 34.43929 -90.51614 40044 ft 377 kts 279°
2026-05-06 18:41 34.45360 -90.57726 40038 ft 377 kts 279°
2026-05-06 18:41 34.46780 -90.63807 40042 ft 377 kts 279°
2026-05-06 18:42 34.48204 -90.69924 40039 ft 376 kts 279°
2026-05-06 18:42 34.49623 -90.76025 40035 ft 375 kts 279°
2026-05-06 18:43 34.51026 -90.82078 40037 ft 374 kts 278°
2026-05-06 18:43 34.52431 -90.88163 40037 ft 374 kts 278°
2026-05-06 18:44 34.53830 -90.94233 40040 ft 373 kts 278°
2026-05-06 18:44 34.55219 -91.00272 40040 ft 373 kts 278°
2026-05-06 18:45 34.56615 -91.06355 40039 ft 373 kts 278°
2026-05-06 18:45 34.58006 -91.12433 40042 ft 373 kts 278°
2026-05-06 18:46 34.59386 -91.18479 40054 ft 373 kts 278°
2026-05-06 18:46 34.60770 -91.24554 40069 ft 373 kts 278°
2026-05-06 18:47 34.62150 -91.30630 40083 ft 373 kts 278°
2026-05-06 18:47 34.63525 -91.36701 40096 ft 373 kts 278°
2026-05-06 18:48 34.64888 -91.42735 40106 ft 373 kts 278°
2026-05-06 18:48 34.66258 -91.48811 40117 ft 373 kts 278°
2026-05-06 18:49 34.67626 -91.54893 40121 ft 373 kts 278°
2026-05-06 18:49 34.68990 -91.60975 40118 ft 373 kts 278°
2026-05-06 18:50 34.70344 -91.67024 40109 ft 373 kts 278°
2026-05-06 18:50 34.71702 -91.73111 40098 ft 373 kts 278°
2026-05-06 18:51 34.73059 -91.79204 40097 ft 372 kts 278°
2026-05-06 18:51 34.74406 -91.85267 40081 ft 370 kts 278°
2026-05-06 18:52 34.75747 -91.91323 40075 ft 370 kts 278°
2026-05-06 18:52 34.77074 -91.97332 40071 ft 369 kts 278°
2026-05-06 18:53 34.78407 -92.03381 40076 ft 369 kts 278°
2026-05-06 18:53 34.79726 -92.09387 40082 ft 369 kts 278°
2026-05-06 18:54 34.80932 -92.15450 40052 ft 365 kts 273°
2026-05-06 18:54 34.81596 -92.21573 40056 ft 364 kts 271°
2026-05-06 18:55 34.82153 -92.27658 40052 ft 363 kts 271°
2026-05-06 18:55 34.82694 -92.33777 40057 ft 363 kts 271°
2026-05-06 18:56 34.83236 -92.39890 40057 ft 362 kts 271°
2026-05-06 18:56 34.83775 -92.45949 40059 ft 362 kts 271°
2026-05-06 18:57 34.84316 -92.52050 40086 ft 362 kts 271°
2026-05-06 18:57 34.84854 -92.58148 40083 ft 362 kts 271°
2026-05-06 18:58 34.85389 -92.64250 40085 ft 362 kts 271°
2026-05-06 18:58 34.85919 -92.70314 40086 ft 362 kts 270°
2026-05-06 18:59 34.86448 -92.76414 40082 ft 361 kts 270°
2026-05-06 18:59 34.86973 -92.82512 40073 ft 361 kts 270°
2026-05-06 19:00 34.87491 -92.88566 40073 ft 361 kts 270°
2026-05-06 19:00 34.88009 -92.94652 40075 ft 361 kts 270°
2026-05-06 19:01 34.88524 -93.00736 40073 ft 361 kts 270°
2026-05-06 19:01 34.89036 -93.06826 40082 ft 361 kts 270°
2026-05-06 19:02 34.89543 -93.12876 40072 ft 361 kts 270°
2026-05-06 19:02 34.90050 -93.18961 40075 ft 361 kts 270°
2026-05-06 19:03 34.90551 -93.25047 40075 ft 361 kts 270°
2026-05-06 19:03 34.90966 -93.30115 40079 ft 361 kts 270°
2026-05-06 19:04 34.91545 -93.37202 40081 ft 361 kts 270°
2026-05-06 19:04 34.91956 -93.42258 40076 ft 361 kts 270°
2026-05-06 19:05 34.92447 -93.48350 40087 ft 361 kts 270°
2026-05-06 19:05 34.92936 -93.54444 40076 ft 361 kts 269°
2026-05-06 19:06 34.93418 -93.60501 40075 ft 361 kts 269°
2026-05-06 19:06 34.93900 -93.66591 40098 ft 361 kts 269°
2026-05-06 19:07 34.94379 -93.72683 40082 ft 360 kts 269°
2026-05-06 19:07 34.94855 -93.78769 40086 ft 360 kts 269°
2026-05-06 19:08 34.95328 -93.84860 40072 ft 361 kts 269°
2026-05-06 19:08 34.95793 -93.90923 40070 ft 361 kts 269°
2026-05-06 19:09 34.96261 -93.97031 40077 ft 361 kts 269°
2026-05-06 19:09 34.96726 -94.03132 40078 ft 361 kts 269°
2026-05-06 19:10 34.97185 -94.09198 40072 ft 361 kts 269°
2026-05-06 19:10 34.97643 -94.15306 40072 ft 361 kts 269°
2026-05-06 19:11 34.98100 -94.21421 40076 ft 361 kts 269°
2026-05-06 19:11 34.98550 -94.27495 40079 ft 362 kts 269°
2026-05-06 19:12 34.99000 -94.33608 40082 ft 361 kts 269°
2026-05-06 19:12 34.99447 -94.39726 40087 ft 361 kts 269°
2026-05-06 19:13 34.99887 -94.45801 40089 ft 361 kts 269°
2026-05-06 19:13 35.00328 -94.51914 40091 ft 361 kts 269°
2026-05-06 19:14 35.00764 -94.58022 40099 ft 361 kts 268°
2026-05-06 19:14 35.01196 -94.64098 40091 ft 361 kts 268°
2026-05-06 19:15 35.01658 -94.70203 40088 ft 363 kts 270°
2026-05-06 19:15 35.02482 -94.76315 40096 ft 365 kts 272°
2026-05-06 19:16 35.03410 -94.82420 40096 ft 366 kts 272°
2026-05-06 19:16 35.04285 -94.88504 40101 ft 365 kts 272°
2026-05-06 19:17 35.05121 -94.94621 40107 ft 365 kts 272°
2026-05-06 19:17 35.05942 -95.00744 40109 ft 365 kts 271°
2026-05-06 19:18 35.06761 -95.06868 40106 ft 365 kts 271°
2026-05-06 19:18 35.07574 -95.12949 40110 ft 365 kts 271°
2026-05-06 19:19 35.08391 -95.19076 40110 ft 364 kts 271°
2026-05-06 19:19 35.09202 -95.25190 40109 ft 364 kts 271°
2026-05-06 19:20 35.10004 -95.31256 40108 ft 364 kts 271°
2026-05-06 19:20 35.10808 -95.37371 40110 ft 364 kts 271°
2026-05-06 19:21 35.11610 -95.43492 40111 ft 364 kts 271°
2026-05-06 19:21 35.12402 -95.49588 40171 ft 364 kts 271°
2026-05-06 19:22 35.13133 -95.55704 40111 ft 363 kts 270°
2026-05-06 19:22 35.13846 -95.61821 40110 ft 363 kts 270°
2026-05-06 19:23 35.14558 -95.67888 40092 ft 363 kts 270°
2026-05-06 19:23 35.15279 -95.73999 40094 ft 363 kts 270°
2026-05-06 19:24 35.15998 -95.80110 40106 ft 363 kts 270°
2026-05-06 19:24 35.16715 -95.86228 40102 ft 363 kts 270°
2026-05-06 19:25 35.17428 -95.92343 40097 ft 363 kts 270°
2026-05-06 19:25 35.18134 -95.98423 40092 ft 363 kts 270°
2026-05-06 19:26 35.18841 -96.04543 40092 ft 363 kts 270°
2026-05-06 19:26 35.19544 -96.10660 40103 ft 363 kts 270°
2026-05-06 19:27 35.20239 -96.16734 40098 ft 363 kts 270°
2026-05-06 19:27 35.20937 -96.22848 40096 ft 363 kts 270°
2026-05-06 19:28 35.21635 -96.28964 40092 ft 362 kts 270°
2026-05-06 19:28 35.22325 -96.35077 40092 ft 362 kts 270°
2026-05-06 19:29 35.23008 -96.41160 40085 ft 362 kts 270°
2026-05-06 19:29 35.23693 -96.47268 40099 ft 362 kts 270°
2026-05-06 19:30 35.24375 -96.53382 40088 ft 362 kts 270°
2026-05-06 19:30 35.25050 -96.59462 40073 ft 362 kts 270°
2026-05-06 19:31 35.25725 -96.65572 40074 ft 362 kts 270°
2026-05-06 19:31 35.26733 -96.74750 40074 ft 362 kts 270°
2026-05-06 19:32 35.27397 -96.80825 40075 ft 362 kts 270°
2026-05-06 19:32 35.28062 -96.86941 40081 ft 362 kts 269°
2026-05-06 19:33 35.28723 -96.93060 40083 ft 363 kts 269°
2026-05-06 19:33 35.29379 -96.99151 40085 ft 363 kts 269°
2026-05-06 19:34 35.30035 -97.05277 40098 ft 362 kts 269°
2026-05-06 19:34 35.30688 -97.11394 40085 ft 362 kts 269°
2026-05-06 19:35 35.31332 -97.17464 40083 ft 361 kts 269°
2026-05-06 19:35 35.31977 -97.23573 40076 ft 361 kts 269°
2026-05-06 19:36 35.32620 -97.29686 40076 ft 361 kts 269°
2026-05-06 19:36 35.33258 -97.35795 40071 ft 361 kts 269°
2026-05-06 19:37 35.33889 -97.41858 40073 ft 361 kts 269°
2026-05-06 19:37 35.34418 -97.46976 40075 ft 361 kts 269°
2026-05-06 19:38 35.35150 -97.54077 40091 ft 361 kts 269°
2026-05-06 19:38 35.35726 -97.60182 40101 ft 358 kts 266°
2026-05-06 19:39 35.35788 -97.66213 40092 ft 355 kts 263°
2026-05-06 19:39 35.35714 -97.72271 40092 ft 355 kts 263°
2026-05-06 19:40 35.35614 -97.78317 40096 ft 355 kts 263°
2026-05-06 19:40 35.35516 -97.84372 40094 ft 355 kts 263°
2026-05-06 19:41 35.35422 -97.90385 40096 ft 355 kts 263°
2026-05-06 19:41 35.35326 -97.96443 40098 ft 355 kts 263°
2026-05-06 19:42 35.35227 -98.02497 40084 ft 355 kts 263°
2026-05-06 19:42 35.35125 -98.08513 40091 ft 355 kts 263°
2026-05-06 19:43 35.35019 -98.14564 40079 ft 355 kts 263°
2026-05-06 19:43 35.34911 -98.20590 40088 ft 355 kts 263°
2026-05-06 19:44 35.34799 -98.26640 40083 ft 355 kts 263°
2026-05-06 19:44 35.34685 -98.32693 40086 ft 355 kts 263°
2026-05-06 19:45 35.34568 -98.38736 40082 ft 355 kts 263°
2026-05-06 19:45 35.34448 -98.44744 40102 ft 354 kts 263°
2026-05-06 19:46 35.34325 -98.50790 40090 ft 354 kts 263°
2026-05-06 19:46 35.34198 -98.56831 40104 ft 354 kts 263°
2026-05-06 19:47 35.34070 -98.62836 40092 ft 354 kts 263°
2026-05-06 19:47 35.33937 -98.68871 40106 ft 354 kts 262°
2026-05-06 19:48 35.33802 -98.74910 40103 ft 354 kts 262°
2026-05-06 19:48 35.33663 -98.80956 40092 ft 355 kts 262°
2026-05-06 19:49 35.33523 -98.86958 40091 ft 354 kts 262°
2026-05-06 19:49 35.33381 -98.93001 40090 ft 354 kts 262°
2026-05-06 19:50 35.33231 -98.99040 40103 ft 354 kts 262°
2026-05-06 19:50 35.33079 -99.05077 40108 ft 354 kts 262°
2026-05-06 19:51 35.32925 -99.11115 40115 ft 354 kts 262°
2026-05-06 19:51 35.32769 -99.17116 40106 ft 355 kts 262°
2026-05-06 19:52 35.32609 -99.23163 40108 ft 355 kts 262°
2026-05-06 19:52 35.32473 -99.28186 40112 ft 355 kts 262°
2026-05-06 19:53 35.32281 -99.35210 40104 ft 355 kts 262°
2026-05-06 19:53 35.32140 -99.40236 40090 ft 354 kts 262°
2026-05-06 19:54 35.31968 -99.46273 40108 ft 354 kts 262°
2026-05-06 19:54 35.31793 -99.52317 40095 ft 355 kts 262°
2026-05-06 19:55 35.31615 -99.58377 40087 ft 355 kts 262°
2026-05-06 19:55 35.31435 -99.64406 40088 ft 355 kts 262°
2026-05-06 19:56 35.31252 -99.70454 40096 ft 355 kts 262°
2026-05-06 19:56 35.31064 -99.76510 40087 ft 355 kts 262°
2026-05-06 19:57 35.30876 -99.82520 40093 ft 355 kts 262°
2026-05-06 19:57 35.30682 -99.88576 40086 ft 356 kts 262°
2026-05-06 19:58 35.30486 -99.94639 40090 ft 356 kts 262°
2026-05-06 19:58 35.30286 -100.00706 40091 ft 356 kts 262°
2026-05-06 19:59 35.30085 -100.06740 40088 ft 356 kts 262°
2026-05-06 19:59 35.29880 -100.12801 40089 ft 356 kts 262°
2026-05-06 20:00 35.29671 -100.18859 40092 ft 356 kts 262°
2026-05-06 20:00 35.29460 -100.24876 40092 ft 356 kts 262°
2026-05-06 20:01 35.29245 -100.30943 40094 ft 357 kts 262°
2026-05-06 20:01 35.29027 -100.37017 40094 ft 357 kts 262°
2026-05-06 20:02 35.28806 -100.43094 40094 ft 357 kts 262°
2026-05-06 20:02 35.28584 -100.49135 40094 ft 357 kts 262°
2026-05-06 20:03 35.28357 -100.55208 40095 ft 357 kts 261°
2026-05-06 20:03 35.28127 -100.61283 40100 ft 357 kts 262°
2026-05-06 20:04 35.27893 -100.67364 40099 ft 357 kts 262°
2026-05-06 20:04 35.27658 -100.73410 40138 ft 358 kts 262°
2026-05-06 20:05 35.27417 -100.79510 40107 ft 359 kts 262°
2026-05-06 20:05 35.27174 -100.85616 40107 ft 359 kts 262°
2026-05-06 20:06 35.26928 -100.91722 40109 ft 359 kts 262°
2026-05-06 20:06 35.26679 -100.97796 40109 ft 359 kts 262°
2026-05-06 20:07 35.26426 -101.03908 40111 ft 359 kts 262°
2026-05-06 20:07 35.26171 -101.09979 40111 ft 359 kts 261°
2026-05-06 20:08 35.25912 -101.16085 40111 ft 359 kts 261°
2026-05-06 20:08 35.25650 -101.22195 40111 ft 359 kts 261°
2026-05-06 20:09 35.25385 -101.28293 40109 ft 359 kts 261°
2026-05-06 20:09 35.25118 -101.34368 40104 ft 360 kts 261°
2026-05-06 20:10 35.24844 -101.40498 40105 ft 362 kts 261°
2026-05-06 20:10 35.24568 -101.46650 40099 ft 362 kts 261°
2026-05-06 20:11 35.24289 -101.52798 40101 ft 362 kts 261°
2026-05-06 20:11 35.24007 -101.58941 40100 ft 362 kts 261°
2026-05-06 20:12 35.23725 -101.65004 40100 ft 362 kts 261°
2026-05-06 20:12 35.23442 -101.71061 40101 ft 363 kts 261°
2026-05-06 20:13 35.23264 -101.77274 40101 ft 365 kts 263°
2026-05-06 20:13 35.23150 -101.83483 40098 ft 365 kts 263°
2026-05-06 20:14 35.23019 -101.89681 40092 ft 365 kts 263°
2026-05-06 20:14 35.22869 -101.95839 40085 ft 364 kts 262°
2026-05-06 20:15 35.22711 -102.02035 40078 ft 364 kts 262°
2026-05-06 20:15 35.22548 -102.08231 40063 ft 365 kts 262°
2026-05-06 20:16 35.22382 -102.14439 40054 ft 366 kts 262°
2026-05-06 20:16 35.22213 -102.20658 40042 ft 366 kts 262°
2026-05-06 20:17 35.22043 -102.26872 40042 ft 366 kts 262°
2026-05-06 20:17 35.21869 -102.33093 40042 ft 366 kts 262°
2026-05-06 20:18 35.21690 -102.39314 40040 ft 366 kts 262°
2026-05-06 20:18 35.21508 -102.45544 40042 ft 368 kts 262°
2026-05-06 20:19 35.21321 -102.51820 40026 ft 370 kts 262°
2026-05-06 20:19 35.21132 -102.58111 40027 ft 370 kts 262°
2026-05-06 20:20 35.20940 -102.64403 40010 ft 370 kts 262°
2026-05-06 20:20 35.20744 -102.70695 40010 ft 370 kts 262°
2026-05-06 20:21 35.20545 -102.76988 40010 ft 370 kts 262°